User: anonymous   Login
Location: Unspecified
(0.0000°N, 0.0000°E)
Time: 20:03:06
(UTC+00:00)
Language:

STARLINK-6335 - Orbit

View from above orbital plane
View from above orbital plane
View from above satellite
View from above satellite

Ground track
Ground track

The orbit is defined by the following mean orbital elements,

1 56527U          26145.43093153 +.00000000 +00000-0 +11967-4 0 00002
2 56527  43.0013 142.7038 0000988 276.5656  83.5083 15.27578299    07
Epoch (UTC): 25 May 2026 10:20:32
Eccentricity: 0.0000988
inclination: 43.0013°
perigee height: 482 km
apogee height: 484 km
right ascension of ascending node: 142.7038°
argument of perigee: 276.5656°
revolutions per day: 15.27578299
mean anomaly at epoch: 83.5083°

The dashed part of the orbit path shows where the satellite is in the earth's shadow,  

DLR